Time,TemperatureF,DewpointF,PressureIn,WindDirection,WindDirectionDegrees,WindSpeedMPH,WindSpeedGustMPH,Humidity,HourlyPrecipIn,Conditions,Clouds,dailyrainin,SoftwareType,DateUTC
2013-08-23 00:11:00,58.0,53.0,29.91,West,273,0.0,2.0,82,0.00,,,0.00,weatherlink.com 1.10,2013-08-23 07:11:00,
2013-08-23 00:26:00,57.5,52.0,29.91,West,272,0.0,1.0,83,0.00,,,0.00,weatherlink.com 1.10,2013-08-23 07:26:00,
2013-08-23 00:41:00,57.5,53.0,29.91,West,273,0.0,2.0,84,0.00,,,0.00,weatherlink.com 1.10,2013-08-23 07:41:00,
2013-08-23 00:56:00,57.6,53.0,29.91,West,273,0.0,1.0,84,0.00,,,0.00,weatherlink.com 1.10,2013-08-23 07:56:00,
2013-08-23 01:11:00,57.8,53.0,29.91,West,268,0.0,3.0,84,0.00,,,0.00,weatherlink.com 1.10,2013-08-23 08:11:00,
2013-08-23 01:26:00,57.7,53.0,29.91,West,268,0.0,2.0,84,0.00,,,0.00,weatherlink.com 1.10,2013-08-23 08:26:00,
2013-08-23 01:41:00,57.1,52.0,29.91,West,268,0.0,1.0,84,0.00,,,0.00,weatherlink.com 1.10,2013-08-23 08:41:00,
2013-08-23 01:56:00,56.6,52.0,29.91,West,268,0.0,0.0,85,0.00,,,0.00,weatherlink.com 1.10,2013-08-23 08:56:00,
2013-08-23 02:11:00,56.2,52.0,29.91,West,268,0.0,1.0,86,0.00,,,0.00,weatherlink.com 1.10,2013-08-23 09:11:00,
2013-08-23 02:26:00,56.0,52.0,29.91,West,268,0.0,1.0,86,0.00,,,0.00,weatherlink.com 1.10,2013-08-23 09:26:00,
2013-08-23 02:41:00,56.2,52.0,29.91,West,268,0.0,1.0,86,0.00,,,0.00,weatherlink.com 1.10,2013-08-23 09:41:00,
2013-08-23 02:56:00,56.5,52.0,29.91,West,268,0.0,1.0,86,0.00,,,0.00,weatherlink.com 1.10,2013-08-23 09:56:00,
2013-08-23 03:11:00,56.8,52.0,29.90,West,268,0.0,0.0,85,0.00,,,0.00,weatherlink.com 1.10,2013-08-23 10:11:00,
2013-08-23 03:26:00,57.1,53.0,29.90,West,268,0.0,0.0,85,0.00,,,0.00,weatherlink.com 1.10,2013-08-23 10:26:00,
2013-08-23 03:41:00,57.8,53.0,29.90,West,268,0.0,1.0,84,0.00,,,0.00,weatherlink.com 1.10,2013-08-23 10:41:00,
2013-08-23 03:56:00,58.4,54.0,29.90,West,268,0.0,1.0,84,0.00,,,0.00,weatherlink.com 1.10,2013-08-23 10:56:00,
2013-08-23 04:11:00,58.7,54.0,29.89,WNW,283,2.0,3.0,84,0.00,,,0.00,weatherlink.com 1.10,2013-08-23 11:11:00,
2013-08-23 04:26:00,58.7,54.0,29.89,WSW,252,2.0,5.0,84,0.00,,,0.00,weatherlink.com 1.10,2013-08-23 11:26:00,
2013-08-23 04:41:00,58.7,54.0,29.89,WNW,300,0.0,6.0,84,0.00,,,0.00,weatherlink.com 1.10,2013-08-23 11:41:00,
2013-08-23 04:56:00,58.8,54.0,29.89,WNW,298,1.0,2.0,84,0.00,,,0.00,weatherlink.com 1.10,2013-08-23 11:56:00,
2013-08-23 05:11:00,58.8,54.0,29.89,WNW,295,0.0,4.0,84,0.00,,,0.00,weatherlink.com 1.10,2013-08-23 12:11:00,
2013-08-23 05:26:00,58.9,54.0,29.89,SW,223,1.0,3.0,84,0.00,,,0.00,weatherlink.com 1.10,2013-08-23 12:26:00,
2013-08-23 05:41:00,58.9,54.0,29.89,WSW,240,0.0,4.0,84,0.00,,,0.00,weatherlink.com 1.10,2013-08-23 12:41:00,
2013-08-23 05:56:00,58.8,54.0,29.89,WSW,257,3.0,4.0,84,0.00,,,0.00,weatherlink.com 1.10,2013-08-23 12:56:00,
2013-08-23 06:11:00,58.8,54.0,29.90,WSW,256,0.0,2.0,83,0.00,,,0.00,weatherlink.com 1.10,2013-08-23 13:11:00,
2013-08-23 06:26:00,58.9,53.0,29.90,WSW,257,0.0,2.0,82,0.00,,,0.00,weatherlink.com 1.10,2013-08-23 13:26:00,
2013-08-23 06:41:00,59.0,54.0,29.90,WSW,257,0.0,3.0,84,0.00,,,0.00,weatherlink.com 1.10,2013-08-23 13:41:00,
2013-08-23 06:56:00,59.0,54.0,29.91,WSW,253,3.0,4.0,84,0.00,,,0.00,weatherlink.com 1.10,2013-08-23 13:56:00,
2013-08-23 07:11:00,59.1,54.0,29.91,NNW,331,4.0,7.0,84,0.00,,,0.00,weatherlink.com 1.10,2013-08-23 14:11:00,
2013-08-23 07:26:00,59.0,54.0,29.91,West,265,1.0,4.0,84,0.00,,,0.00,weatherlink.com 1.10,2013-08-23 14:26:00,
2013-08-23 07:42:00,58.9,54.0,29.91,WNW,302,2.0,5.0,84,0.00,,,0.00,weatherlink.com 1.10,2013-08-23 14:42:00,
2013-08-23 07:57:00,58.7,54.0,29.91,WSW,244,0.0,5.0,83,0.00,,,0.00,weatherlink.com 1.10,2013-08-23 14:57:00,
2013-08-23 08:12:00,58.6,54.0,29.91,SW,232,4.0,5.0,83,0.00,,,0.00,weatherlink.com 1.10,2013-08-23 15:12:00,
2013-08-23 08:27:00,58.5,53.0,29.91,NW,304,3.0,5.0,83,0.00,,,0.00,weatherlink.com 1.10,2013-08-23 15:27:00,
2013-08-23 08:42:00,58.7,54.0,29.92,WSW,257,2.0,7.0,83,0.00,,,0.00,weatherlink.com 1.10,2013-08-23 15:42:00,
2013-08-23 08:57:00,58.6,54.0,29.92,WNW,287,2.0,8.0,83,0.00,,,0.00,weatherlink.com 1.10,2013-08-23 15:57:00,
2013-08-23 09:12:00,59.6,54.0,29.92,NW,318,1.0,7.0,83,0.00,,,0.00,weatherlink.com 1.10,2013-08-23 16:12:00,
2013-08-23 09:27:00,59.9,54.0,29.92,NW,318,3.0,6.0,81,0.00,,,0.00,weatherlink.com 1.10,2013-08-23 16:27:00,
2013-08-23 09:42:00,60.7,55.0,29.92,North,5,2.0,6.0,81,0.00,,,0.00,weatherlink.com 1.10,2013-08-23 16:42:00,
2013-08-23 09:57:00,61.4,55.0,29.92,NNW,329,1.0,5.0,78,0.00,,,0.00,weatherlink.com 1.10,2013-08-23 16:57:00,
2013-08-23 10:12:00,62.0,55.0,29.92,NNW,340,3.0,4.0,77,0.00,,,0.00,weatherlink.com 1.10,2013-08-23 17:12:00,
2013-08-23 10:27:00,62.5,55.0,29.92,WNW,301,1.0,4.0,76,0.00,,,0.00,weatherlink.com 1.10,2013-08-23 17:27:00,
2013-08-23 10:42:00,64.2,56.0,29.91,NW,322,0.0,4.0,74,0.00,,,0.00,weatherlink.com 1.10,2013-08-23 17:42:00,
2013-08-23 10:57:00,65.4,56.0,29.91,WNW,300,2.0,5.0,71,0.00,,,0.00,weatherlink.com 1.10,2013-08-23 17:57:00,
2013-08-23 11:12:00,65.7,56.0,29.91,ESE,117,2.0,7.0,72,0.00,,,0.00,weatherlink.com 1.10,2013-08-23 18:12:00,
2013-08-23 11:27:00,66.1,56.0,29.90,East,98,3.0,7.0,71,0.00,,,0.00,weatherlink.com 1.10,2013-08-23 18:27:00,
2013-08-23 11:42:00,66.4,57.0,29.90,East,80,2.0,8.0,72,0.00,,,0.00,weatherlink.com 1.10,2013-08-23 18:42:00,
2013-08-23 11:57:00,66.9,57.0,29.89,ENE,67,3.0,7.0,71,0.00,,,0.00,weatherlink.com 1.10,2013-08-23 18:57:00,
2013-08-23 12:12:00,67.1,57.0,29.89,North,360,2.0,10.0,71,0.00,,,0.00,weatherlink.com 1.10,2013-08-23 19:12:00,
2013-08-23 12:27:00,68.1,58.0,29.89,NE,50,1.0,9.0,70,0.00,,,0.00,weatherlink.com 1.10,2013-08-23 19:27:00,
2013-08-23 12:42:00,67.5,58.0,29.89,NE,43,6.0,10.0,71,0.00,,,0.00,weatherlink.com 1.10,2013-08-23 19:42:00,
2013-08-23 12:57:00,69.0,57.0,29.88,WNW,290,2.0,7.0,65,0.00,,,0.00,weatherlink.com 1.10,2013-08-23 19:57:00,
2013-08-23 13:12:00,70.6,57.0,29.87,NNW,337,5.0,8.0,62,0.00,,,0.00,weatherlink.com 1.10,2013-08-23 20:12:00,
2013-08-23 13:27:00,71.0,57.0,29.87,NW,321,4.0,8.0,61,0.00,,,0.00,weatherlink.com 1.10,2013-08-23 20:27:00,
2013-08-23 13:42:00,71.8,56.0,29.87,North,355,6.0,11.0,58,0.00,,,0.00,weatherlink.com 1.10,2013-08-23 20:42:00,
2013-08-23 13:57:00,71.8,56.0,29.86,North,11,3.0,11.0,58,0.00,,,0.00,weatherlink.com 1.10,2013-08-23 20:57:00,
2013-08-23 14:12:00,72.1,56.0,29.86,NNW,327,4.0,10.0,58,0.00,,,0.00,weatherlink.com 1.10,2013-08-23 21:12:00,
2013-08-23 14:27:00,71.8,55.0,29.86,WNW,286,3.0,12.0,56,0.00,,,0.00,weatherlink.com 1.10,2013-08-23 21:27:00,
2013-08-23 14:42:00,71.0,55.0,29.86,North,355,3.0,9.0,58,0.00,,,0.00,weatherlink.com 1.10,2013-08-23 21:42:00,
2013-08-23 14:57:00,70.8,55.0,29.85,NW,325,3.0,11.0,58,0.00,,,0.00,weatherlink.com 1.10,2013-08-23 21:57:00,
2013-08-23 15:12:00,70.8,55.0,29.85,NW,308,3.0,9.0,57,0.00,,,0.00,weatherlink.com 1.10,2013-08-23 22:12:00,
2013-08-23 15:27:00,71.8,55.0,29.84,North,355,4.0,10.0,56,0.00,,,0.00,weatherlink.com 1.10,2013-08-23 22:27:00,
2013-08-23 15:43:00,72.6,56.0,29.84,WSW,237,5.0,7.0,56,0.00,,,0.00,weatherlink.com 1.10,2013-08-23 22:43:00,
2013-08-23 15:58:00,72.2,55.0,29.84,NW,315,3.0,8.0,55,0.00,,,0.00,weatherlink.com 1.10,2013-08-23 22:58:00,
2013-08-23 16:13:00,72.1,55.0,29.83,NNW,336,3.0,8.0,56,0.00,,,0.00,weatherlink.com 1.10,2013-08-23 23:13:00,
2013-08-23 16:28:00,71.6,55.0,29.83,WNW,295,4.0,8.0,56,0.00,,,0.00,weatherlink.com 1.10,2013-08-23 23:28:00,
2013-08-23 16:43:00,70.8,55.0,29.82,North,5,4.0,9.0,58,0.00,,,0.00,weatherlink.com 1.10,2013-08-23 23:43:00,
2013-08-23 16:58:00,70.9,55.0,29.82,West,279,3.0,8.0,58,0.00,,,0.00,weatherlink.com 1.10,2013-08-23 23:58:00,
2013-08-23 17:13:00,70.2,56.0,29.82,NW,318,4.0,8.0,60,0.00,,,0.00,weatherlink.com 1.10,2013-08-24 00:13:00,
2013-08-23 17:28:00,70.4,56.0,29.82,North,5,9.0,9.0,60,0.00,,,0.00,weatherlink.com 1.10,2013-08-24 00:28:00,
2013-08-23 17:43:00,69.5,55.0,29.82,WNW,286,7.0,11.0,61,0.00,,,0.00,weatherlink.com 1.10,2013-08-24 00:43:00,
2013-08-23 17:58:00,69.5,56.0,29.83,WNW,303,3.0,6.0,62,0.00,,,0.00,weatherlink.com 1.10,2013-08-24 00:58:00,
2013-08-23 18:13:00,68.5,55.0,29.82,WNW,297,2.0,7.0,63,0.00,,,0.00,weatherlink.com 1.10,2013-08-24 01:13:00,
2013-08-23 18:28:00,68.4,56.0,29.82,WNW,296,2.0,5.0,64,0.00,,,0.00,weatherlink.com 1.10,2013-08-24 01:28:00,
2013-08-23 18:43:00,67.5,55.0,29.81,West,280,2.0,8.0,65,0.00,,,0.00,weatherlink.com 1.10,2013-08-24 01:43:00,
2013-08-23 18:58:00,66.9,55.0,29.81,West,271,4.0,5.0,66,0.00,,,0.00,weatherlink.com 1.10,2013-08-24 01:58:00,
2013-08-23 19:13:00,65.7,55.0,29.81,WSW,239,1.0,5.0,68,0.00,,,0.00,weatherlink.com 1.10,2013-08-24 02:13:00,
2013-08-23 19:28:00,64.6,54.0,29.81,East,92,1.0,5.0,69,0.00,,,0.00,weatherlink.com 1.10,2013-08-24 02:28:00,
2013-08-23 19:43:00,63.9,54.0,29.81,SW,215,0.0,5.0,70,0.00,,,0.00,weatherlink.com 1.10,2013-08-24 02:43:00,
2013-08-23 19:58:00,63.4,53.0,29.81,SW,229,0.0,2.0,70,0.00,,,0.00,weatherlink.com 1.10,2013-08-24 02:58:00,
2013-08-23 20:13:00,62.9,53.0,29.82,WSW,256,4.0,6.0,70,0.00,,,0.00,weatherlink.com 1.10,2013-08-24 03:13:00,
2013-08-23 20:28:00,62.4,53.0,29.82,NNE,25,0.0,3.0,71,0.00,,,0.00,weatherlink.com 1.10,2013-08-24 03:28:00,
2013-08-23 20:43:00,61.9,53.0,29.82,North,5,2.0,2.0,72,0.00,,,0.00,weatherlink.com 1.10,2013-08-24 03:43:00,
2013-08-23 20:58:00,62.0,52.0,29.83,West,278,0.0,2.0,71,0.00,,,0.00,weatherlink.com 1.10,2013-08-24 03:58:00,
2013-08-23 21:13:00,62.0,53.0,29.83,NNW,337,2.0,4.0,72,0.00,,,0.00,weatherlink.com 1.10,2013-08-24 04:13:00,
2013-08-23 21:28:00,61.5,53.0,29.83,NNW,340,2.0,5.0,74,0.00,,,0.00,weatherlink.com 1.10,2013-08-24 04:28:00,
2013-08-23 21:43:00,61.2,53.0,29.83,NW,315,1.0,4.0,74,0.00,,,0.00,weatherlink.com 1.10,2013-08-24 04:43:00,
2013-08-23 21:58:00,60.9,53.0,29.83,WNW,302,0.0,1.0,75,0.00,,,0.00,weatherlink.com 1.10,2013-08-24 04:58:00,
2013-08-23 22:13:00,60.4,52.0,29.83,WNW,302,0.0,1.0,75,0.00,,,0.00,weatherlink.com 1.10,2013-08-24 05:13:00,
2013-08-23 22:28:00,59.9,52.0,29.83,WNW,302,0.0,1.0,76,0.00,,,0.00,weatherlink.com 1.10,2013-08-24 05:28:00,
2013-08-23 22:43:00,59.5,52.0,29.83,WNW,302,0.0,0.0,77,0.00,,,0.00,weatherlink.com 1.10,2013-08-24 05:43:00,
2013-08-23 22:58:00,59.1,52.0,29.83,WNW,302,0.0,1.0,77,0.00,,,0.00,weatherlink.com 1.10,2013-08-24 05:58:00,
2013-08-23 23:13:00,58.5,52.0,29.84,WNW,302,0.0,0.0,78,0.00,,,0.00,weatherlink.com 1.10,2013-08-24 06:13:00,
2013-08-23 23:28:00,57.9,52.0,29.84,WNW,302,0.0,0.0,80,0.00,,,0.00,weatherlink.com 1.10,2013-08-24 06:28:00,
2013-08-23 23:43:00,57.3,52.0,29.84,WNW,302,0.0,0.0,81,0.00,,,0.00,weatherlink.com 1.10,2013-08-24 06:43:00,
2013-08-23 23:58:00,56.9,51.0,29.84,WNW,302,0.0,0.0,81,0.00,,,0.00,weatherlink.com 1.10,2013-08-24 06:58:00,